Simultaneous Nadir Overpasses (SNOs) Predictions

Prediction of SNOs between NOAA-19 and NPP Satellite Orbit:

Table of predicted SNOs for the next 14.0 days since TLE Epoch: 9/1/2017
Index Date (NOAA-19) Time (NOAA-19) Lat,Lon (NOAA-19) SZA (NOAA-19 ) Date (NPP) Time (NPP) Lat,Lon (NPP) SZA (NPP ) Distance(km) Time Diff (sec)
1 09/09/2017 21:11:12 80.77, 172.78 78.94 09/09/2017 21:12:25 80.78, 172.91 78.89 2.42 73
2 09/09/2017 22:02:17 -80.78, -19.74 101.07 09/09/2017 22:03:10 -80.78, -19.80 101.09 0.95 53
3 09/09/2017 22:53:13 80.78, 147.45 78.95 09/09/2017 22:53:55 80.78, 147.52 78.92 1.19 42
4 09/09/2017 23:44:18 -80.79, -45.07 101.07 09/09/2017 23:44:40 -80.78, -45.19 101.07 2.21 22
5 09/10/2017 00:35:14 80.78, 122.13 78.96 09/10/2017 00:35:25 80.78, 122.13 78.95 0.33 11
6 09/10/2017 01:26:20 -80.78, -70.76 101.02 09/10/2017 01:26:10 -80.78, -70.58 101.04 3.11 10
7 09/10/2017 02:17:15 80.79, 96.80 78.97 09/10/2017 02:16:55 80.78, 96.74 78.98 1.37 20
8 09/10/2017 03:08:21 -80.78, -96.08 101.01 09/10/2017 03:07:40 -80.78, -95.97 101.01 1.94 41
9 09/10/2017 03:59:16 80.79, 71.47 78.98 09/10/2017 03:58:25 80.78, 71.34 79.01 2.59 51




NCC Satellite Simultaneous Nadir Overpasses (SNOs) Prediction Service
